ROA231 SCEL-SCIE

Flight info

Callsign ROA231
Flight time 0h 44m
Altitude 29000
Route GELUS5B GELUS UQ809 ARUNI ARUNI6C
Aircraft A321/M-SDE3FGHIRWY/LB1

Departure

Time 2026-04-23 21:51
Airport Comodoro Arturo Merino Benítez International Airport (SCEL)

Arrival

Time 2026-04-23 22:35
Airport Carriel Sur International Airport (SCIE)
Time Latitude Longitude Altitude Speed Heading
2026-04-23 21:15 -33.39603 -70.79697 1565 ft 0 kts 177°
2026-04-23 21:38 -33.39602 -70.79697 1565 ft 1 kts 177°
2026-04-23 21:38 -33.39578 -70.79698 1565 ft 4 kts 177°
2026-04-23 21:38 -33.39555 -70.79699 1565 ft 3 kts 178°
2026-04-23 21:39 -33.39532 -70.79693 1565 ft 4 kts 230°
2026-04-23 21:39 -33.39521 -70.79666 1565 ft 4 kts 262°
2026-04-23 21:39 -33.39520 -70.79655 1565 ft 0 kts 267°
2026-04-23 21:42 -33.39520 -70.79659 1565 ft 2 kts 267°
2026-04-23 21:42 -33.39522 -70.79698 1565 ft 8 kts 266°
2026-04-23 21:42 -33.39526 -70.79781 1565 ft 12 kts 266°
2026-04-23 21:42 -33.39529 -70.79885 1565 ft 11 kts 268°
2026-04-23 21:43 -33.39515 -70.79938 1565 ft 5 kts 338°
2026-04-23 21:43 -33.39467 -70.79944 1565 ft 9 kts 356°
2026-04-23 21:43 -33.39387 -70.79949 1565 ft 13 kts 357°
2026-04-23 21:43 -33.39301 -70.79954 1565 ft 11 kts 358°
2026-04-23 21:44 -33.39225 -70.79957 1565 ft 11 kts 358°
2026-04-23 21:44 -33.39138 -70.79962 1565 ft 14 kts 357°
2026-04-23 21:44 -33.39034 -70.79968 1565 ft 16 kts 357°
2026-04-23 21:44 -33.38917 -70.79974 1565 ft 17 kts 358°
2026-04-23 21:45 -33.38818 -70.79979 1566 ft 13 kts 357°
2026-04-23 21:45 -33.38719 -70.79985 1566 ft 15 kts 357°
2026-04-23 21:45 -33.38619 -70.79991 1565 ft 13 kts 356°
2026-04-23 21:45 -33.38512 -70.79996 1565 ft 16 kts 357°
2026-04-23 21:46 -33.38413 -70.80002 1565 ft 16 kts 356°
2026-04-23 21:46 -33.38304 -70.80008 1565 ft 15 kts 358°
2026-04-23 21:46 -33.38206 -70.80013 1565 ft 13 kts 357°
2026-04-23 21:46 -33.38124 -70.80019 1565 ft 8 kts 356°
2026-04-23 21:47 -33.38097 -70.80059 1565 ft 7 kts 277°
2026-04-23 21:47 -33.38096 -70.80112 1566 ft 4 kts 281°
2026-04-23 21:47 -33.38046 -70.80126 1566 ft 14 kts 356°
2026-04-23 21:47 -33.37926 -70.80131 1566 ft 21 kts 358°
2026-04-23 21:48 -33.37763 -70.80139 1566 ft 24 kts 357°
2026-04-23 21:48 -33.37603 -70.80148 1567 ft 22 kts 358°
2026-04-23 21:48 -33.37452 -70.80156 1567 ft 21 kts 357°
2026-04-23 21:48 -33.37312 -70.80163 1567 ft 20 kts 357°
2026-04-23 21:49 -33.37188 -70.80170 1567 ft 14 kts 357°
2026-04-23 21:49 -33.37124 -70.80200 1567 ft 9 kts 316°
2026-04-23 21:49 -33.37104 -70.80249 1569 ft 4 kts 281°
2026-04-23 21:49 -33.37103 -70.80282 1571 ft 6 kts 266°
2026-04-23 21:50 -33.37134 -70.80354 1574 ft 13 kts 221°
2026-04-23 21:50 -33.37210 -70.80374 1573 ft 4 kts 178°
2026-04-23 21:50 -33.37211 -70.80374 1573 ft 0 kts 178°
2026-04-23 21:50 -33.37226 -70.80373 1573 ft 15 kts 178°
2026-04-23 21:51 -33.37588 -70.80352 1573 ft 86 kts 177°
2026-04-23 21:51 -33.38375 -70.80310 1574 ft 138 kts 177°
2026-04-23 21:51 -33.39445 -70.80253 1679 ft 167 kts 177°
2026-04-23 21:51 -33.40574 -70.80192 2409 ft 157 kts 178°
2026-04-23 21:52 -33.41669 -70.80131 2891 ft 164 kts 179°
2026-04-23 21:52 -33.42862 -70.80073 3154 ft 182 kts 179°
2026-04-23 21:52 -33.44206 -70.79997 3341 ft 204 kts 177°
2026-04-23 21:52 -33.45706 -70.79903 3513 ft 229 kts 177°
2026-04-23 21:53 -33.47388 -70.79799 3829 ft 254 kts 177°
2026-04-23 21:53 -33.49197 -70.79871 4479 ft 267 kts 195°
2026-04-23 21:53 -33.50788 -70.81030 5224 ft 276 kts 230°
2026-04-23 21:53 -33.51653 -70.83076 6042 ft 278 kts 256°
2026-04-23 21:54 -33.52016 -70.85354 6945 ft 279 kts 264°
2026-04-23 21:54 -33.52273 -70.87659 7817 ft 281 kts 260°
2026-04-23 21:54 -33.53020 -70.89834 8639 ft 287 kts 236°
2026-04-23 21:54 -33.54473 -70.91497 9462 ft 293 kts 215°
2026-04-23 21:55 -33.56194 -70.92834 10271 ft 298 kts 214°
2026-04-23 21:55 -33.58009 -70.94233 10531 ft 322 kts 214°
2026-04-23 21:55 -33.59951 -70.95727 10934 ft 339 kts 214°
2026-04-23 21:55 -33.61953 -70.97268 11633 ft 345 kts 214°
2026-04-23 21:56 -33.63982 -70.98835 12407 ft 349 kts 215°
2026-04-23 21:56 -33.66028 -71.00420 13190 ft 352 kts 215°
2026-04-23 21:56 -33.68072 -71.02005 13956 ft 356 kts 215°
2026-04-23 21:56 -33.70160 -71.03628 14661 ft 359 kts 215°
2026-04-23 21:57 -33.72262 -71.05270 15377 ft 362 kts 215°
2026-04-23 21:57 -33.74375 -71.06924 16098 ft 364 kts 215°
2026-04-23 21:57 -33.76508 -71.08591 16833 ft 367 kts 215°
2026-04-23 21:57 -33.78660 -71.10268 17556 ft 370 kts 215°
2026-04-23 21:58 -33.80831 -71.11959 18267 ft 373 kts 215°
2026-04-23 21:58 -33.83011 -71.13658 18898 ft 376 kts 215°
2026-04-23 21:58 -33.85211 -71.15373 19524 ft 378 kts 215°
2026-04-23 21:58 -33.87428 -71.17104 20150 ft 380 kts 216°
2026-04-23 21:59 -33.89651 -71.18846 20768 ft 382 kts 216°
2026-04-23 21:59 -33.91908 -71.20550 21357 ft 386 kts 211°
2026-04-23 21:59 -33.94310 -71.22033 21951 ft 389 kts 210°
2026-04-23 22:00 -33.99175 -71.25006 23122 ft 394 kts 210°
2026-04-23 22:00 -34.01621 -71.26503 23694 ft 397 kts 211°
2026-04-23 22:00 -34.04094 -71.28017 24141 ft 399 kts 211°
2026-04-23 22:00 -34.06574 -71.29537 24606 ft 401 kts 211°
2026-04-23 22:01 -34.09067 -71.31070 25072 ft 403 kts 211°
2026-04-23 22:01 -34.11574 -71.32614 25546 ft 406 kts 211°
2026-04-23 22:01 -34.14097 -71.34164 26005 ft 408 kts 211°
2026-04-23 22:01 -34.16634 -71.35722 26453 ft 410 kts 211°
2026-04-23 22:02 -34.19187 -71.37290 26894 ft 413 kts 211°
2026-04-23 22:02 -34.21753 -71.38868 27343 ft 415 kts 211°
2026-04-23 22:02 -34.24300 -71.40437 27781 ft 417 kts 211°
2026-04-23 22:02 -34.26893 -71.42034 28200 ft 420 kts 211°
2026-04-23 22:03 -34.29502 -71.43645 28629 ft 422 kts 211°
2026-04-23 22:03 -34.32159 -71.45288 29053 ft 425 kts 211°
2026-04-23 22:03 -34.37306 -71.48466 29146 ft 409 kts 211°
2026-04-23 22:04 -34.42338 -71.51582 29149 ft 405 kts 211°
2026-04-23 22:04 -34.47346 -71.54695 29153 ft 404 kts 211°
2026-04-23 22:05 -34.52354 -71.57807 29155 ft 405 kts 211°
2026-04-23 22:05 -34.57365 -71.60920 29158 ft 405 kts 211°
2026-04-23 22:06 -34.62375 -71.64041 29169 ft 405 kts 210°
2026-04-23 22:06 -34.67384 -71.67164 29168 ft 404 kts 210°
2026-04-23 22:07 -34.72390 -71.70289 29169 ft 404 kts 210°
2026-04-23 22:07 -34.77393 -71.73409 29166 ft 404 kts 210°
2026-04-23 22:08 -34.82398 -71.76538 29162 ft 404 kts 211°
2026-04-23 22:08 -34.87362 -71.79649 29177 ft 404 kts 210°
2026-04-23 22:09 -34.92358 -71.82785 29172 ft 404 kts 210°
2026-04-23 22:09 -34.97350 -71.85923 29168 ft 404 kts 210°
2026-04-23 22:10 -35.02349 -71.89063 29161 ft 404 kts 210°
2026-04-23 22:10 -35.07341 -71.92211 29164 ft 404 kts 210°
2026-04-23 22:11 -35.12330 -71.95360 29168 ft 404 kts 210°
2026-04-23 22:11 -35.17312 -71.98509 29171 ft 403 kts 210°
2026-04-23 22:12 -35.22290 -72.01660 29172 ft 403 kts 210°
2026-04-23 22:12 -35.27274 -72.04816 29170 ft 403 kts 210°
2026-04-23 22:13 -35.32225 -72.07947 29169 ft 403 kts 210°
2026-04-23 22:13 -35.37198 -72.11114 28616 ft 402 kts 211°
2026-04-23 22:14 -35.39664 -72.12683 28140 ft 397 kts 210°
2026-04-23 22:14 -35.42107 -72.14237 27657 ft 393 kts 210°
2026-04-23 22:14 -35.44514 -72.15771 27186 ft 388 kts 210°
2026-04-23 22:14 -35.46898 -72.17295 26725 ft 384 kts 210°
2026-04-23 22:15 -35.49253 -72.18801 26273 ft 380 kts 210°
2026-04-23 22:15 -35.51578 -72.20287 25848 ft 375 kts 210°
2026-04-23 22:15 -35.53876 -72.21754 25424 ft 371 kts 210°
2026-04-23 22:15 -35.56151 -72.23208 25003 ft 367 kts 210°
2026-04-23 22:16 -35.58402 -72.24649 24589 ft 363 kts 210°
2026-04-23 22:16 -35.60632 -72.26076 24182 ft 360 kts 210°
2026-04-23 22:16 -35.62850 -72.27497 23771 ft 358 kts 210°
2026-04-23 22:16 -35.65046 -72.28906 23299 ft 354 kts 210°
2026-04-23 22:17 -35.67219 -72.30299 22878 ft 350 kts 210°
2026-04-23 22:17 -35.69367 -72.31678 22470 ft 346 kts 210°
2026-04-23 22:17 -35.71490 -72.33041 22049 ft 342 kts 210°
2026-04-23 22:17 -35.73592 -72.34391 21650 ft 339 kts 210°
2026-04-23 22:18 -35.75673 -72.35729 21237 ft 336 kts 210°
2026-04-23 22:18 -35.77736 -72.37056 20826 ft 333 kts 210°
2026-04-23 22:18 -35.79751 -72.38352 20423 ft 331 kts 210°
2026-04-23 22:18 -35.81788 -72.39666 20018 ft 329 kts 210°
2026-04-23 22:19 -35.83811 -72.40972 19617 ft 327 kts 210°
2026-04-23 22:19 -35.85820 -72.42268 19211 ft 326 kts 210°
2026-04-23 22:19 -35.87823 -72.43562 18789 ft 324 kts 210°
2026-04-23 22:19 -35.89803 -72.44886 18368 ft 323 kts 212°
2026-04-23 22:20 -35.91733 -72.46285 17933 ft 320 kts 214°
2026-04-23 22:20 -35.93624 -72.47716 17541 ft 317 kts 214°
2026-04-23 22:20 -35.95493 -72.49149 17140 ft 315 kts 215°
2026-04-23 22:20 -35.97351 -72.50573 16751 ft 313 kts 215°
2026-04-23 22:21 -35.99200 -72.51979 16355 ft 311 kts 214°
2026-04-23 22:21 -36.01040 -72.53369 15987 ft 309 kts 214°
2026-04-23 22:21 -36.02876 -72.54748 15603 ft 308 kts 214°
2026-04-23 22:21 -36.04705 -72.56122 15224 ft 307 kts 214°
2026-04-23 22:22 -36.05908 -72.57027 14974 ft 306 kts 214°
2026-04-23 22:22 -36.07727 -72.58396 14594 ft 305 kts 214°
2026-04-23 22:22 -36.10142 -72.60214 14076 ft 304 kts 214°
2026-04-23 22:22 -36.11920 -72.61551 13683 ft 303 kts 214°
2026-04-23 22:23 -36.13714 -72.62901 13288 ft 301 kts 214°
2026-04-23 22:23 -36.15494 -72.64241 12902 ft 298 kts 214°
2026-04-23 22:23 -36.17254 -72.65570 12523 ft 296 kts 214°
2026-04-23 22:23 -36.18441 -72.66468 12260 ft 295 kts 214°
2026-04-23 22:24 -36.20190 -72.67790 11897 ft 294 kts 214°
2026-04-23 22:24 -36.21909 -72.69088 11506 ft 293 kts 214°
2026-04-23 22:24 -36.23645 -72.70402 11121 ft 292 kts 214°
2026-04-23 22:24 -36.25383 -72.71715 10611 ft 295 kts 214°
2026-04-23 22:25 -36.27142 -72.73044 10230 ft 294 kts 214°
2026-04-23 22:25 -36.28865 -72.74343 9969 ft 287 kts 214°
2026-04-23 22:25 -36.30552 -72.75618 9828 ft 283 kts 214°
2026-04-23 22:25 -36.32234 -72.76890 9630 ft 283 kts 214°
2026-04-23 22:26 -36.33909 -72.78158 9267 ft 281 kts 214°
2026-04-23 22:26 -36.35569 -72.79416 8908 ft 279 kts 214°
2026-04-23 22:26 -36.37226 -72.80673 8538 ft 278 kts 214°
2026-04-23 22:26 -36.38869 -72.81921 8178 ft 276 kts 214°
2026-04-23 22:27 -36.40507 -72.83154 7804 ft 275 kts 214°
2026-04-23 22:27 -36.42135 -72.84373 7437 ft 273 kts 214°
2026-04-23 22:27 -36.43756 -72.85584 7084 ft 271 kts 214°
2026-04-23 22:27 -36.45365 -72.86788 6723 ft 269 kts 213°
2026-04-23 22:28 -36.46961 -72.87982 6357 ft 267 kts 213°
2026-04-23 22:28 -36.48543 -72.89166 5994 ft 264 kts 213°
2026-04-23 22:28 -36.50080 -72.90316 5642 ft 250 kts 213°
2026-04-23 22:28 -36.51533 -72.91370 5336 ft 236 kts 208°
2026-04-23 22:29 -36.53003 -72.92215 5026 ft 229 kts 206°
2026-04-23 22:29 -36.54400 -72.93023 4705 ft 213 kts 206°
2026-04-23 22:29 -36.55684 -72.93768 4433 ft 195 kts 206°
2026-04-23 22:29 -36.56870 -72.94458 4202 ft 183 kts 205°
2026-04-23 22:30 -36.57997 -72.95114 3949 ft 175 kts 204°
2026-04-23 22:30 -36.59065 -72.95739 3722 ft 165 kts 204°
2026-04-23 22:30 -36.60080 -72.96330 3509 ft 157 kts 204°
2026-04-23 22:30 -36.61042 -72.96888 3297 ft 153 kts 203°
2026-04-23 22:31 -36.61991 -72.97439 3101 ft 147 kts 203°
2026-04-23 22:31 -36.62904 -72.97969 2901 ft 144 kts 203°
2026-04-23 22:31 -36.63810 -72.98495 2718 ft 145 kts 204°
2026-04-23 22:31 -36.64725 -72.99026 2519 ft 145 kts 204°
2026-04-23 22:32 -36.65628 -72.99551 2328 ft 142 kts 204°
2026-04-23 22:32 -36.66520 -73.00070 2138 ft 142 kts 204°
2026-04-23 22:32 -36.67411 -73.00588 1945 ft 140 kts 204°
2026-04-23 22:32 -36.68279 -73.01094 1787 ft 135 kts 205°
2026-04-23 22:33 -36.69122 -73.01585 1588 ft 133 kts 205°
2026-04-23 22:33 -36.69951 -73.02066 1401 ft 131 kts 205°
2026-04-23 22:33 -36.70771 -73.02541 1221 ft 130 kts 206°
2026-04-23 22:33 -36.71586 -73.03012 1044 ft 129 kts 207°
2026-04-23 22:34 -36.72398 -73.03481 863 ft 128 kts 207°
2026-04-23 22:34 -36.73222 -73.03960 689 ft 131 kts 206°
2026-04-23 22:34 -36.74042 -73.04436 506 ft 130 kts 206°
2026-04-23 22:34 -36.74899 -73.04931 352 ft 133 kts 206°
2026-04-23 22:35 -36.75718 -73.05426 168 ft 131 kts 206°
2026-04-23 22:35 -36.76531 -73.05894 63 ft 121 kts 206°
2026-04-23 22:35 -36.77144 -73.06255 64 ft 72 kts 205°
2026-04-23 22:35 -36.77382 -73.06394 64 ft 46 kts 205°
2026-04-23 22:36 -36.77784 -73.06626 57 ft 26 kts 205°
2026-04-23 22:36 -36.77962 -73.06670 62 ft 11 kts 129°
2026-04-23 22:36 -36.77993 -73.06590 57 ft 11 kts 113°
2026-04-23 22:37 -36.78013 -73.06530 61 ft 6 kts 104°
2026-04-23 22:37 -36.77979 -73.06494 61 ft 11 kts 31°
2026-04-23 22:37 -36.77896 -73.06445 61 ft 13 kts 25°
2026-04-23 22:37 -36.77817 -73.06399 59 ft 12 kts 25°
2026-04-23 22:38 -36.77745 -73.06356 56 ft 11 kts 25°
2026-04-23 22:38 -36.77678 -73.06317 54 ft 10 kts 25°
2026-04-23 22:38 -36.77624 -73.06286 55 ft 8 kts 25°
2026-04-23 22:38 -36.77563 -73.06249 57 ft 12 kts 26°
2026-04-23 22:39 -36.77501 -73.06193 57 ft 9 kts 73°
2026-04-23 22:39 -36.77517 -73.06127 55 ft 7 kts 113°
2026-04-23 22:39 -36.77532 -73.06079 55 ft 6 kts 107°
2026-04-23 22:39 -36.77565 -73.06043 54 ft 6 kts 162°
2026-04-23 22:40 -36.77596 -73.06035 54 ft 2 kts 169°
2026-04-23 22:40 -36.77603 -73.06033 57 ft 0 kts 170°